DLH151 EDDH-EDDN

Flight info

Callsign DLH151
Flight time 0h 48m
Altitude 39000
Route AMLUH2C AMLUH M852 DENIX DCT ZUCKA DCT GALMA M736 TABAT Q244 NIBIL/N0348F230 Q244 PIVIR PIVIR1V
Aircraft A20N/M-SDE2E3FGHIRWXY/LB1

Departure

Time 2026-04-20 19:40
Airport Hamburg Helmut Schmidt Airport (EDDH)

Arrival

Time 2026-04-20 20:29
Airport Nuremberg Airport (EDDN)
Time Latitude Longitude Altitude Speed Heading
2026-04-20 19:07 53.63004 10.00373 46 ft 0 kts 122°
2026-04-20 19:10 53.63004 10.00372 46 ft 0 kts 122°
2026-04-20 19:26 53.63007 10.00364 46 ft 1 kts 122°
2026-04-20 19:26 53.63011 10.00353 44 ft 1 kts 122°
2026-04-20 19:27 53.63032 10.00296 41 ft 7 kts 122°
2026-04-20 19:27 53.63047 10.00262 47 ft 3 kts 145°
2026-04-20 19:27 53.63060 10.00256 46 ft 0 kts 214°
2026-04-20 19:29 53.63056 10.00251 42 ft 3 kts 214°
2026-04-20 19:29 53.63010 10.00199 46 ft 13 kts 214°
2026-04-20 19:29 53.62946 10.00131 45 ft 12 kts 211°
2026-04-20 19:29 53.62938 10.00123 45 ft 0 kts 211°
2026-04-20 19:30 53.62933 10.00118 45 ft 5 kts 213°
2026-04-20 19:30 53.62923 10.00107 45 ft 0 kts 213°
2026-04-20 19:31 53.62922 10.00106 45 ft 1 kts 213°
2026-04-20 19:31 53.62894 10.00075 45 ft 9 kts 213°
2026-04-20 19:31 53.62857 10.00022 45 ft 12 kts 222°
2026-04-20 19:31 53.62746 9.99909 46 ft 16 kts 208°
2026-04-20 19:32 53.62677 9.99843 42 ft 18 kts 215°
2026-04-20 19:32 53.62631 9.99689 43 ft 0 kts 258°
2026-04-20 19:32 53.62631 9.99685 43 ft 2 kts 258°
2026-04-20 19:32 53.62614 9.99549 44 ft 20 kts 259°
2026-04-20 19:33 53.62588 9.99314 44 ft 22 kts 259°
2026-04-20 19:33 53.62556 9.99040 45 ft 25 kts 258°
2026-04-20 19:33 53.62533 9.98831 43 ft 15 kts 259°
2026-04-20 19:33 53.62524 9.98751 45 ft 0 kts 259°
2026-04-20 19:34 53.62524 9.98746 45 ft 3 kts 259°
2026-04-20 19:34 53.62519 9.98705 43 ft 0 kts 260°
2026-04-20 19:37 53.62512 9.98636 45 ft 17 kts 260°
2026-04-20 19:37 53.62485 9.98405 45 ft 22 kts 258°
2026-04-20 19:37 53.62453 9.98128 44 ft 25 kts 259°
2026-04-20 19:38 53.62427 9.97900 44 ft 14 kts 264°
2026-04-20 19:38 53.62434 9.97856 44 ft 0 kts 297°
2026-04-20 19:39 53.62438 9.97843 41 ft 3 kts 298°
2026-04-20 19:39 53.62480 9.97788 43 ft 17 kts 342°
2026-04-20 19:39 53.62550 9.97838 44 ft 0 kts 48°
2026-04-20 19:39 53.62559 9.97856 45 ft 17 kts 49°
2026-04-20 19:40 53.62798 9.98338 48 ft 87 kts 50°
2026-04-20 19:40 53.63307 9.99365 50 ft 137 kts 50°
2026-04-20 19:40 53.63951 10.00684 440 ft 145 kts 51°
2026-04-20 19:40 53.64571 10.01993 1070 ft 142 kts 52°
2026-04-20 19:41 53.65179 10.03296 1762 ft 140 kts 55°
2026-04-20 19:41 53.65805 10.04590 2269 ft 152 kts 54°
2026-04-20 19:41 53.66511 10.05989 2657 ft 172 kts 54°
2026-04-20 19:41 53.67339 10.07639 3072 ft 197 kts 53°
2026-04-20 19:42 53.68273 10.09522 3632 ft 221 kts 53°
2026-04-20 19:42 53.69289 10.11623 4336 ft 238 kts 57°
2026-04-20 19:42 53.69922 10.14179 4508 ft 237 kts 82°
2026-04-20 19:42 53.69810 10.16956 4655 ft 241 kts 104°
2026-04-20 19:43 53.69340 10.18671 4744 ft 246 kts 120°
2026-04-20 19:43 53.67552 10.21152 4911 ft 260 kts 154°
2026-04-20 19:43 53.65782 10.22001 5114 ft 267 kts 161°
2026-04-20 19:43 53.63998 10.22779 5884 ft 268 kts 161°
2026-04-20 19:44 53.62199 10.23568 7010 ft 268 kts 161°
2026-04-20 19:44 53.60390 10.24375 7975 ft 272 kts 161°
2026-04-20 19:44 53.58549 10.25203 8958 ft 276 kts 161°
2026-04-20 19:44 53.56660 10.26058 9607 ft 283 kts 161°
2026-04-20 19:45 53.54760 10.26914 9913 ft 283 kts 161°
2026-04-20 19:45 53.52837 10.27780 10319 ft 288 kts 161°
2026-04-20 19:45 53.50901 10.28651 11278 ft 288 kts 161°
2026-04-20 19:45 53.48951 10.29528 12159 ft 293 kts 161°
2026-04-20 19:46 53.46963 10.30422 13041 ft 297 kts 161°
2026-04-20 19:46 53.44953 10.31325 13908 ft 302 kts 161°
2026-04-20 19:46 53.42933 10.32231 14671 ft 306 kts 161°
2026-04-20 19:46 53.40861 10.33161 15461 ft 310 kts 161°
2026-04-20 19:47 53.38715 10.34133 15826 ft 330 kts 161°
2026-04-20 19:47 53.36421 10.35175 16041 ft 352 kts 161°
2026-04-20 19:47 53.33991 10.36274 16257 ft 372 kts 162°
2026-04-20 19:47 53.31424 10.37427 16463 ft 391 kts 162°
2026-04-20 19:48 53.28742 10.38629 16699 ft 407 kts 162°
2026-04-20 19:48 53.25962 10.39870 17006 ft 421 kts 162°
2026-04-20 19:48 53.23088 10.41153 17367 ft 431 kts 162°
2026-04-20 19:48 53.20173 10.42450 17986 ft 435 kts 162°
2026-04-20 19:49 53.17233 10.43758 18567 ft 439 kts 162°
2026-04-20 19:49 53.14264 10.45079 19105 ft 443 kts 162°
2026-04-20 19:49 53.11285 10.46218 19644 ft 447 kts 167°
2026-04-20 19:49 53.08192 10.47175 20183 ft 450 kts 167°
2026-04-20 19:50 53.05108 10.48126 20699 ft 454 kts 167°
2026-04-20 19:50 53.02014 10.49084 21209 ft 457 kts 167°
2026-04-20 19:50 52.98887 10.50053 21706 ft 461 kts 167°
2026-04-20 19:50 52.95709 10.51038 22207 ft 463 kts 167°
2026-04-20 19:51 52.92518 10.52026 22688 ft 467 kts 167°
2026-04-20 19:51 52.89314 10.53018 23168 ft 470 kts 167°
2026-04-20 19:51 52.86083 10.54016 23627 ft 473 kts 167°
2026-04-20 19:51 52.82833 10.55018 23997 ft 477 kts 167°
2026-04-20 19:52 52.79575 10.56022 24141 ft 478 kts 167°
2026-04-20 19:52 52.76331 10.57018 24193 ft 479 kts 167°
2026-04-20 19:52 52.73045 10.58026 24197 ft 479 kts 167°
2026-04-20 19:52 52.69755 10.59034 24187 ft 479 kts 167°
2026-04-20 19:53 52.66515 10.60025 24184 ft 479 kts 167°
2026-04-20 19:53 52.63203 10.61037 24191 ft 479 kts 167°
2026-04-20 19:53 52.59943 10.62031 24195 ft 479 kts 167°
2026-04-20 19:53 52.56639 10.63038 24483 ft 480 kts 167°
2026-04-20 19:54 52.53377 10.64029 25287 ft 472 kts 167°
2026-04-20 19:54 52.50182 10.64999 25712 ft 475 kts 167°
2026-04-20 19:54 52.46906 10.65994 26073 ft 478 kts 167°
2026-04-20 19:54 52.43620 10.66990 26443 ft 480 kts 167°
2026-04-20 19:55 52.40340 10.67994 26783 ft 482 kts 167°
2026-04-20 19:55 52.37053 10.69132 27070 ft 484 kts 166°
2026-04-20 19:55 52.33687 10.70365 27329 ft 486 kts 165°
2026-04-20 19:55 52.30477 10.71545 27548 ft 487 kts 166°
2026-04-20 19:56 52.27173 10.72745 27742 ft 488 kts 166°
2026-04-20 19:56 52.23835 10.73944 27985 ft 488 kts 166°
2026-04-20 19:56 52.20501 10.75132 28244 ft 488 kts 166°
2026-04-20 19:56 52.17212 10.76298 28495 ft 487 kts 166°
2026-04-20 19:57 52.13878 10.77477 28751 ft 487 kts 166°
2026-04-20 19:57 52.10608 10.78633 28979 ft 487 kts 166°
2026-04-20 19:57 52.07282 10.79806 29215 ft 486 kts 166°
2026-04-20 19:57 52.03974 10.80970 29593 ft 483 kts 166°
2026-04-20 19:58 52.00708 10.82119 29809 ft 484 kts 166°
2026-04-20 19:58 51.97404 10.83280 29998 ft 485 kts 166°
2026-04-20 19:58 51.94093 10.84441 30189 ft 485 kts 166°
2026-04-20 19:59 51.87518 10.86741 30163 ft 483 kts 166°
2026-04-20 19:59 51.80979 10.89021 30160 ft 482 kts 167°
2026-04-20 20:00 51.74433 10.91298 30159 ft 482 kts 167°
2026-04-20 20:00 51.67873 10.93573 30158 ft 483 kts 167°
2026-04-20 20:01 51.61291 10.95848 30146 ft 483 kts 167°
2026-04-20 20:01 51.54723 10.98111 30151 ft 483 kts 167°
2026-04-20 20:02 51.48260 11.00331 29833 ft 466 kts 167°
2026-04-20 20:02 51.45079 11.01422 29191 ft 462 kts 167°
2026-04-20 20:02 51.41979 11.02483 28479 ft 458 kts 167°
2026-04-20 20:02 51.38850 11.03553 27792 ft 453 kts 167°
2026-04-20 20:03 51.35794 11.04597 27110 ft 449 kts 167°
2026-04-20 20:03 51.32735 11.05639 26459 ft 445 kts 167°
2026-04-20 20:03 51.29719 11.06666 25809 ft 441 kts 167°
2026-04-20 20:03 51.26759 11.07673 25180 ft 437 kts 167°
2026-04-20 20:04 51.23795 11.08679 24579 ft 433 kts 167°
2026-04-20 20:04 51.20864 11.09673 23987 ft 430 kts 167°
2026-04-20 20:04 51.17928 11.10667 23331 ft 426 kts 167°
2026-04-20 20:04 51.15076 11.11631 22691 ft 421 kts 167°
2026-04-20 20:05 51.12215 11.12598 22051 ft 417 kts 167°
2026-04-20 20:05 51.09371 11.13558 21412 ft 413 kts 167°
2026-04-20 20:05 51.06599 11.14492 20794 ft 409 kts 167°
2026-04-20 20:05 51.03812 11.15430 20323 ft 403 kts 167°
2026-04-20 20:06 51.01084 11.16347 20180 ft 404 kts 167°
2026-04-20 20:06 50.98302 11.17282 20153 ft 406 kts 167°
2026-04-20 20:06 50.95556 11.18203 20154 ft 405 kts 167°
2026-04-20 20:06 50.92780 11.19133 20153 ft 405 kts 167°
2026-04-20 20:07 50.90037 11.20051 20149 ft 405 kts 167°
2026-04-20 20:07 50.87276 11.20973 20146 ft 405 kts 167°
2026-04-20 20:07 50.84503 11.21899 20147 ft 405 kts 167°
2026-04-20 20:07 50.81755 11.22814 20143 ft 405 kts 167°
2026-04-20 20:08 50.78982 11.23737 20141 ft 405 kts 167°
2026-04-20 20:08 50.76241 11.24648 20141 ft 405 kts 167°
2026-04-20 20:08 50.73496 11.25560 20126 ft 405 kts 167°
2026-04-20 20:08 50.70743 11.26472 19892 ft 402 kts 167°
2026-04-20 20:09 50.68021 11.27374 19425 ft 400 kts 167°
2026-04-20 20:09 50.65284 11.28279 18856 ft 398 kts 167°
2026-04-20 20:09 50.62600 11.29167 18257 ft 395 kts 167°
2026-04-20 20:09 50.59903 11.30057 17603 ft 391 kts 167°
2026-04-20 20:10 50.57267 11.30925 17115 ft 385 kts 167°
2026-04-20 20:10 50.54691 11.31771 16951 ft 370 kts 167°
2026-04-20 20:10 50.52198 11.32589 16576 ft 362 kts 167°
2026-04-20 20:10 50.49766 11.33389 16080 ft 359 kts 167°
2026-04-20 20:11 50.47315 11.34194 15577 ft 357 kts 167°
2026-04-20 20:11 50.44894 11.34988 15090 ft 354 kts 167°
2026-04-20 20:11 50.42498 11.35773 14596 ft 352 kts 167°
2026-04-20 20:11 50.40090 11.36561 14119 ft 350 kts 166°
2026-04-20 20:12 50.37720 11.37336 13612 ft 347 kts 166°
2026-04-20 20:12 50.35350 11.38111 13114 ft 344 kts 167°
2026-04-20 20:12 50.33025 11.38870 12624 ft 342 kts 167°
2026-04-20 20:13 50.28398 11.40379 11632 ft 337 kts 167°
2026-04-20 20:13 50.26131 11.41116 11260 ft 332 kts 167°
2026-04-20 20:13 50.23852 11.41856 11134 ft 335 kts 167°
2026-04-20 20:13 50.21591 11.42591 11111 ft 335 kts 167°
2026-04-20 20:14 50.19294 11.43337 11113 ft 335 kts 167°
2026-04-20 20:14 50.17034 11.44070 11112 ft 335 kts 167°
2026-04-20 20:14 50.14736 11.44813 11115 ft 335 kts 167°
2026-04-20 20:14 50.12469 11.45546 11111 ft 335 kts 167°
2026-04-20 20:15 50.10181 11.46286 11111 ft 335 kts 167°
2026-04-20 20:15 50.07882 11.47028 11115 ft 335 kts 168°
2026-04-20 20:15 50.05605 11.47764 11114 ft 335 kts 168°
2026-04-20 20:15 50.03314 11.48502 11116 ft 336 kts 168°
2026-04-20 20:16 50.01044 11.49233 11113 ft 335 kts 168°
2026-04-20 20:16 49.99516 11.49725 11113 ft 336 kts 168°
2026-04-20 20:16 49.96471 11.50703 11110 ft 335 kts 168°
2026-04-20 20:16 49.94946 11.51193 11111 ft 336 kts 168°
2026-04-20 20:17 49.92643 11.51932 11108 ft 336 kts 168°
2026-04-20 20:17 49.90374 11.52660 11109 ft 336 kts 168°
2026-04-20 20:17 49.88065 11.53400 11107 ft 336 kts 168°
2026-04-20 20:17 49.85766 11.53830 11108 ft 336 kts 181°
2026-04-20 20:18 49.83457 11.53222 11108 ft 335 kts 200°
2026-04-20 20:18 49.81349 11.51815 11101 ft 326 kts 205°
2026-04-20 20:18 49.79342 11.50401 11103 ft 314 kts 205°
2026-04-20 20:18 49.77323 11.48985 11101 ft 319 kts 205°
2026-04-20 20:19 49.75313 11.47581 11034 ft 317 kts 205°
2026-04-20 20:19 49.73297 11.46179 10753 ft 315 kts 205°
2026-04-20 20:19 49.71246 11.45151 10424 ft 312 kts 186°
2026-04-20 20:19 49.69126 11.45439 10317 ft 299 kts 165°
2026-04-20 20:20 49.67170 11.46276 10172 ft 289 kts 164°
2026-04-20 20:20 49.65244 11.47118 9832 ft 286 kts 164°
2026-04-20 20:20 49.63349 11.47953 9431 ft 285 kts 164°
2026-04-20 20:20 49.61442 11.48806 9136 ft 280 kts 164°
2026-04-20 20:21 49.59616 11.49633 8909 ft 273 kts 164°
2026-04-20 20:21 49.57797 11.50464 8536 ft 269 kts 165°
2026-04-20 20:21 49.55978 11.50701 8151 ft 261 kts 192°
2026-04-20 20:21 49.54232 11.50186 8019 ft 247 kts 194°
2026-04-20 20:22 49.52583 11.49685 7766 ft 242 kts 194°
2026-04-20 20:22 49.50993 11.49210 7423 ft 241 kts 194°
2026-04-20 20:22 49.49356 11.48731 7102 ft 240 kts 195°
2026-04-20 20:22 49.47848 11.47769 6747 ft 230 kts 224°
2026-04-20 20:23 49.46970 11.45894 6592 ft 208 kts 252°
2026-04-20 20:23 49.46592 11.43868 6465 ft 191 kts 266°
2026-04-20 20:23 49.46557 11.41876 6114 ft 184 kts 277°
2026-04-20 20:23 49.46702 11.39915 5695 ft 185 kts 282°
2026-04-20 20:24 49.46902 11.37954 5253 ft 185 kts 282°
2026-04-20 20:24 49.47092 11.36019 4846 ft 184 kts 282°
2026-04-20 20:24 49.47284 11.34065 4435 ft 184 kts 282°
2026-04-20 20:24 49.47471 11.32160 4135 ft 179 kts 282°
2026-04-20 20:25 49.47656 11.30279 3893 ft 171 kts 283°
2026-04-20 20:25 49.47821 11.28581 3653 ft 153 kts 284°
2026-04-20 20:25 49.47990 11.26912 3430 ft 159 kts 283°
2026-04-20 20:25 49.48146 11.25282 3211 ft 146 kts 284°
2026-04-20 20:26 49.48296 11.23782 3006 ft 140 kts 284°
2026-04-20 20:26 49.48439 11.22323 2817 ft 136 kts 284°
2026-04-20 20:26 49.48581 11.20900 2624 ft 136 kts 284°
2026-04-20 20:26 49.48724 11.19442 2442 ft 137 kts 283°
2026-04-20 20:27 49.48863 11.18022 2249 ft 135 kts 283°
2026-04-20 20:27 49.49007 11.16572 2045 ft 137 kts 282°
2026-04-20 20:27 49.49147 11.15138 1837 ft 137 kts 282°
2026-04-20 20:27 49.49291 11.13683 1638 ft 138 kts 282°
2026-04-20 20:28 49.49435 11.12218 1450 ft 137 kts 281°
2026-04-20 20:28 49.49569 11.10777 1268 ft 137 kts 281°
2026-04-20 20:28 49.49714 11.09331 1087 ft 136 kts 281°
2026-04-20 20:28 49.49849 11.08018 1045 ft 105 kts 278°
2026-04-20 20:29 49.49931 11.07140 1039 ft 56 kts 279°
2026-04-20 20:29 49.49896 11.07015 1035 ft 16 kts 194°
2026-04-20 20:29 49.49838 11.07039 1035 ft 0 kts 155°
2026-04-20 20:30 49.49829 11.07046 1035 ft 4 kts 155°
2026-04-20 20:30 49.49781 11.07081 1034 ft 11 kts 149°
2026-04-20 20:31 49.49736 11.07187 1036 ft 13 kts 116°
2026-04-20 20:31 49.49649 11.07253 1035 ft 15 kts 130°
2026-04-20 20:31 49.49621 11.07415 1035 ft 17 kts 98°
2026-04-20 20:31 49.49604 11.07598 1037 ft 18 kts 98°
2026-04-20 20:32 49.49578 11.07726 1036 ft 6 kts 156°
2026-04-20 20:32 49.49528 11.07726 1033 ft 0 kts 187°
2026-04-20 20:32 49.49523 11.07725 1033 ft 0 kts 187°